Location: Soapstone Prairie Natural Area
(40.9437°N, 105.0829°W)
Time: 01:53:41
(UTC-07:00)

ISS - Visible Passes

Search period start: 27 February 2017 00:00
Search period end: 09 March 2017 00:00
Orbit: 399 x 408 km, 51.6° (Epoch: 27 February)

Date Brightness Start Highest point End Pass type
(mag) Time Alt. Az. Time Alt. Az. Time Alt. Az.
27 Feb 0.0 05:48:00 10° SE 05:48:55 11° SE 05:49:50 10° ESE visible
01 Mar -1.1 05:37:11 10° SSW 05:39:57 25° SE 05:42:46 10° ENE visible
02 Mar -0.4 04:45:53 10° SSE 04:47:36 14° SE 04:49:19 10° E visible
03 Mar -2.9 05:28:15 13° SW 05:31:06 63° SE 05:34:22 10° ENE visible
04 Mar -1.9 04:38:15 30° SSE 04:38:36 31° SE 04:41:34 10° ENE visible
05 Mar 0.1 03:48:05 11° E 03:48:05 11° E 03:48:20 10° E visible
05 Mar -3.1 05:20:44 26° W 05:22:19 55° NNW 05:25:35 10° NE visible
06 Mar -2.5 04:30:25 50° ENE 04:30:25 50° ENE 04:32:59 10° NE visible
07 Mar 0.2 03:40:00 11° ENE 03:40:00 11° ENE 03:40:13 10° ENE visible
07 Mar -2.1 05:12:38 24° WNW 05:13:38 29° NNW 05:16:34 10° NE visible
08 Mar -1.6 04:22:08 29° NNE 04:22:08 29° NNE 04:24:04 10° NE visible
08 Mar -1.1 05:55:54 10° NW 05:57:57 15° NNW 06:00:00 10° NNE visible
